Flag for Canada Weather past 2 weeks in Annapolis County, Nova Scotia, Canada

Now
32 °F

Chilly.


Feels Like: 27 °F
Forecast: 13 / 29 °F
Wind: 5 mph from South

Location: Kejimkujik 1

Current Time: Mar 1, 2015 at 5:43:41 PM

Latest Report: Mar 1, 2015 at 4:00 PM


Visibility: N/A

Pressure: 30.47 "Hg

Humidity: 56%

Dew point: 18 °F

Location of Annapolis CountyLocation

Historic Weather in Annapolis County — Graph

°F

Annapolis County temperature yesterday

Maximum temperature yesterday: 27 °F (at 3:00 PM)
Minimum temperature yesterday: -7 °F (at 7:00 AM)
Average temperature yesterday: 11 °F

Past Weeks' High & Low Weather Summary

 TemperatureHumidityPressure
High40 °F (Feb 22, 7:00 AM)100% (Feb 16, 8:00 PM)30.67 "Hg (Feb 16, 8:00 PM)
Low-7 °F (Feb 28, 7:00 AM)45% (Feb 28, 4:00 PM)28.87 "Hg (Feb 15, 3:00 PM)
Average17 °F90%29.92 "Hg
* Reported Feb 14 4:00 PM — Mar 1 4:00 PM, Annapolis County, Weather by CustomWeather, © 2015

Note: Actual official high and low records may vary slightly from our data, if they occured in-between our weather recording intervals... More about our weather records

Advertising

Annapolis County weather history for previous 24 hours

 ConditionsComfort  
Time TempWeatherWind HumidityBarometerVisibility
4:00 PM
Sun, Mar 1
32 °FChilly.5 mph56%30.47 "HgN/A
3:00 PM32 °FChilly.5 mph54%30.51 "HgN/A
2:00 PM30 °FChilly.8 mph59%30.53 "HgN/A
1:00 PM31 °FChilly.5 mph53%30.57 "HgN/A
12:00 PM29 °FChilly.5 mph53%30.60 "HgN/A
11:00 AM26 °FChilly.3 mph55%30.63 "HgN/A
10:00 AM21 °FCold.1 mph75%30.64 "HgN/A
9:00 AM8 °FFrigid.1 mph85%30.64 "HgN/A
8:00 AM0 °FFrigid.No wind86%30.66 "HgN/A
7:00 AM-3 °FFrigid.No wind85%30.66 "HgN/A
6:00 AM0 °FFrigid.2 mph89%30.67 "HgN/A
5:00 AM3 °FFrigid.1 mph89%30.65 "HgN/A
4:00 AM4 °FFrigid.2 mph88%30.63 "HgN/A
3:00 AM6 °FFrigid.2 mph90%30.64 "HgN/A
2:00 AM7 °FFrigid.2 mph91%30.64 "HgN/A
1:00 AM9 °FFrigid.1 mph92%30.63 "HgN/A
12:00 AM11 °FCold.2 mph86%30.63 "HgN/A
11:00 PM
Sat, Feb 28
9 °FFrigid.5 mph90%30.63 "HgN/A
10:00 PM11 °FCold.5 mph89%30.63 "HgN/A
9:00 PM13 °FCold.5 mph87%30.63 "HgN/A
8:00 PM15 °FCold.5 mph83%30.63 "HgN/A
7:00 PM17 °FCold.3 mph82%30.63 "HgN/A
6:00 PM21 °FCold.5 mph69%30.61 "HgN/A
5:00 PM26 °FChilly.6 mph54%30.60 "HgN/A
Weather by CustomWeather, © 2015

See weather overviewHow to use our weather pages